Location: Elende
(51.4317°N, 10.6316°E)
Time: 19:24:51
(UTC+00:00)

Meteor 1-21 Rocket - Pass Details

Date: 18 September 2020
Orbit: 834 x 907 km, 81.2° (Epoch: 22 October)

Event Time Altitude Azimuth Distance (km) Brightness Sun altitude
Rises 21:01:50 0° 346° (NNW) 3,451 8.3 -30.5°
Reaches altitude 10° 21:04:15 10° 345° (NNW) 2,521 7.4 -30.7°
Enters shadow 21:09:13 67° 325° (NW) 950 4.5 -31.2°
